• In Netherlands
  • List of Countries
  • For 7 days
  • Water Temperature
  • Satellite Maps
  • Weather Map
  • Weather Widgets
  • user-avatar
    Login

    Hourly Weather Sydney

    Today, 20 August, Sunday

    Time Temperature Precipitation Wind Pressure Humidity
    00:00 +6°C° 0.1 mm 8 mps 765 mmHg 52%
    01:00 +5°C° 0.1 mm 8 mps 765 mmHg 51%
    02:00 +5°C° 0.1 mm 8 mps 766 mmHg 51%
    03:00 +4°C° 0.1 mm 8 mps 766 mmHg 50%
    04:00 +4°C° 0 mm 6 mps 766 mmHg 51%
    05:00 +3°C° 0.1 mm 6 mps 766 mmHg 50%
    06:00 +3°C° 0.1 mm 6 mps 766 mmHg 50%
    07:00 +3°C° 0.1 mm 7 mps 767 mmHg 49%
    08:00 +6°C° 0.1 mm 7 mps 767 mmHg 46%
    09:00 +10°C° 0.1 mm 6 mps 766 mmHg 42%
    10:00 +14°C° 0 mm 6 mps 766 mmHg 38%
    11:00 +15°C° 0.1 mm 6 mps 766 mmHg 39%
    12:00 +16°C° 0.1 mm 6 mps 766 mmHg 39%
    13:00 +17°C° 0.1 mm 6 mps 765 mmHg 40%
    14:00 +17°C° 0.1 mm 6 mps 765 mmHg 43%
    15:00 +16°C° 0.1 mm 6 mps 765 mmHg 47%
    16:00 +16°C° 0.1 mm 5 mps 765 mmHg 51%
    17:00 +14°C° 0.1 mm 5 mps 765 mmHg 61%
    18:00 +12°C° 0.1 mm 4 mps 765 mmHg 71%
    19:00 +11°C° 0.1 mm 3 mps 765 mmHg 82%
    20:00 +10°C° 0.1 mm 3 mps 765 mmHg 85%
    21:00 +10°C° 0.1 mm 2 mps 765 mmHg 88%
    22:00 +9°C° 0.1 mm 2 mps 766 mmHg 91%
    23:00 +9°C° 0.1 mm 2 mps 765 mmHg 91%

    Tomorrow, 21 August, Monday

    Time Temperature Precipitation Wind Pressure Humidity
    00:00 +8°C° 0.1 mm 2 mps 765 mmHg 92%
    01:00 +8°C° 0.1 mm 2 mps 765 mmHg 93%
    02:00 +8°C° 0 mm 2 mps 765 mmHg 93%
    03:00 +8°C° 0 mm 2 mps 764 mmHg 92%
    04:00 +8°C° 0 mm 2 mps 764 mmHg 92%
    05:00 +8°C° 0 mm 2 mps 764 mmHg 90%
    06:00 +8°C° 0 mm 2 mps 764 mmHg 89%
    07:00 +9°C° 0 mm 1 mps 764 mmHg 88%
    08:00 +10°C° 0 mm 2 mps 764 mmHg 80%
    09:00 +12°C° 0 mm 2 mps 764 mmHg 73%
    10:00 +13°C° 0 mm 3 mps 763 mmHg 66%
    11:00 +14°C° 0 mm 3 mps 763 mmHg 59%
    12:00 +16°C° 0 mm 3 mps 762 mmHg 53%
    13:00 +17°C° 0 mm 4 mps 762 mmHg 47%
    14:00 +18°C° 0 mm 4 mps 761 mmHg 44%
    15:00 +18°C° 0 mm 4 mps 761 mmHg 41%
    16:00 +18°C° 0 mm 4 mps 761 mmHg 37%
    17:00 +17°C° 0 mm 4 mps 761 mmHg 41%
    18:00 +15°C° 0 mm 4 mps 761 mmHg 44%
    19:00 +13°C° 0 mm 5 mps 762 mmHg 48%
    20:00 +13°C° 0.1 mm 5 mps 762 mmHg 55%
    21:00 +12°C° 0.1 mm 4 mps 762 mmHg 62%
    22:00 +11°C° 0.1 mm 4 mps 763 mmHg 70%
    23:00 +10°C° 0 mm 3 mps 762 mmHg 71%

    Day after tomorrow, 22 August, Tuesday

    Time Temperature Precipitation Wind Pressure Humidity
    00:00 +10°C° 0 mm 3 mps 762 mmHg 73%
    01:00 +10°C° 0 mm 2 mps 762 mmHg 75%
    02:00 +9°C° 0 mm 2 mps 762 mmHg 76%
    03:00 +9°C° 0 mm 2 mps 762 mmHg 78%
    04:00 +8°C° 0 mm 2 mps 762 mmHg 79%
    05:00 +8°C° 0 mm 2 mps 762 mmHg 79%
    06:00 +9°C° 0 mm 1 mps 762 mmHg 78%
    07:00 +8°C° 0 mm 1 mps 763 mmHg 78%
    08:00 +12°C° 0 mm 1 mps 763 mmHg 65%
    09:00 +15°C° 0 mm 1 mps 763 mmHg 53%
    10:00 +19°C° 0 mm 1 mps 763 mmHg 40%
    11:00 +20°C° 0 mm 1 mps 763 mmHg 37%
    12:00 +21°C° 0 mm 1 mps 762 mmHg 33%
    13:00 +21°C° 0 mm 2 mps 762 mmHg 29%
    14:00 +21°C° 0 mm 2 mps 762 mmHg 31%
    15:00 +20°C° 0 mm 2 mps 762 mmHg 33%
    16:00 +20°C° 0 mm 3 mps 762 mmHg 35%
    17:00 +18°C° 0 mm 3 mps 763 mmHg 45%
    18:00 +15°C° 0 mm 2 mps 763 mmHg 56%
    19:00 +13°C° 0 mm 2 mps 764 mmHg 66%
    20:00 +13°C° 0 mm 2 mps 764 mmHg 70%
    21:00 +12°C° 0 mm 2 mps 765 mmHg 73%
    22:00 +11°C° 0 mm 1 mps 765 mmHg 77%
    23:00 +11°C° 0 mm 1 mps 765 mmHg 78%

    23 August, Wednesday

    Time Temperature Precipitation Wind Pressure Humidity
    00:00 +11°C° 0 mm 1 mps 765 mmHg 80%
    01:00 +10°C° 0 mm 1 mps 765 mmHg 82%
    02:00 +10°C° 0 mm 1 mps 764 mmHg 83%
    03:00 +10°C° 0 mm 1 mps 764 mmHg 84%
    04:00 +9°C° 0 mm 1 mps 764 mmHg 85%
    05:00 +9°C° 0 mm 1 mps 764 mmHg 84%
    06:00 +8°C° 0 mm 2 mps 764 mmHg 83%
    07:00 +8°C° 0 mm 2 mps 765 mmHg 83%
    08:00 +13°C° 0 mm 2 mps 765 mmHg 70%
    09:00 +16°C° 0 mm 2 mps 764 mmHg 58%
    10:00 +19°C° 0 mm 2 mps 764 mmHg 45%
    11:00 +21°C° 0 mm 2 mps 763 mmHg 40%
    12:00 +24°C° 0 mm 3 mps 763 mmHg 35%
    13:00 +25°C° 0 mm 3 mps 762 mmHg 29%
    14:00 +25°C° 0 mm 3 mps 762 mmHg 31%
    15:00 +25°C° 0 mm 4 mps 761 mmHg 32%
    16:00 +23°C° 0 mm 4 mps 761 mmHg 33%
    17:00 +21°C° 0 mm 4 mps 762 mmHg 44%
    18:00 +18°C° 0 mm 4 mps 762 mmHg 55%
    19:00 +15°C° 0 mm 4 mps 763 mmHg 66%
    20:00 +14°C° 0.3 mm 4 mps 763 mmHg 64%
    21:00 +14°C° 0.3 mm 5 mps 763 mmHg 62%
    22:00 +13°C° 0.3 mm 5 mps 764 mmHg 60%
    23:00 +13°C° 0 mm 5 mps 763 mmHg 63%

    24 August, Thursday

    Time Temperature Precipitation Wind Pressure Humidity
    00:00 +12°C° 0 mm 5 mps 763 mmHg 66%
    01:00 +10°C° 0 mm 5 mps 763 mmHg 69%
    02:00 +10°C° 0 mm 5 mps 763 mmHg 70%
    03:00 +10°C° 0 mm 5 mps 763 mmHg 71%
    04:00 +9°C° 0 mm 6 mps 763 mmHg 72%
    05:00 +10°C° 0.1 mm 6 mps 764 mmHg 72%
    06:00 +10°C° 0.1 mm 7 mps 764 mmHg 73%
    07:00 +11°C° 0.1 mm 8 mps 765 mmHg 74%
    08:00 +12°C° 0.3 mm 8 mps 765 mmHg 70%
    09:00 +13°C° 0.3 mm 8 mps 765 mmHg 67%
    10:00 +15°C° 0.3 mm 8 mps 765 mmHg 63%
    11:00 +15°C° 0.2 mm 8 mps 765 mmHg 61%
    12:00 +15°C° 0.2 mm 8 mps 765 mmHg 58%
    13:00 +15°C° 0.2 mm 7 mps 765 mmHg 56%
    14:00 +15°C° 0.1 mm 7 mps 765 mmHg 56%
    15:00 +15°C° 0.1 mm 7 mps 765 mmHg 56%
    16:00 +15°C° 0.1 mm 7 mps 765 mmHg 55%
    17:00 +14°C° 0 mm 7 mps 766 mmHg 61%
    18:00 +11°C° 0 mm 6 mps 766 mmHg 66%
    19:00 +10°C° 0 mm 6 mps 767 mmHg 71%
    20:00 +10°C° 0 mm 6 mps 767 mmHg 72%
    21:00 +9°C° 0 mm 5 mps 767 mmHg 73%
    22:00 +9°C° 0 mm 5 mps 767 mmHg 75%
    23:00 +8°C° 0 mm 5 mps 767 mmHg 76%

    25 August, Friday

    Time Temperature Precipitation Wind Pressure Humidity
    00:00 +8°C° 0 mm 5 mps 767 mmHg 77%
    01:00 +7°C° 0 mm 5 mps 767 mmHg 78%
    02:00 +7°C° 0 mm 5 mps 767 mmHg 79%
    03:00 +7°C° 0 mm 5 mps 767 mmHg 79%
    04:00 +6°C° 0 mm 5 mps 767 mmHg 80%
    05:00 +6°C° 0.1 mm 5 mps 767 mmHg 80%
    06:00 +6°C° 0.1 mm 5 mps 767 mmHg 80%
    07:00 +6°C° 0.1 mm 5 mps 768 mmHg 80%
    08:00 +9°C° 0.1 mm 5 mps 767 mmHg 71%
    09:00 +13°C° 0.1 mm 5 mps 767 mmHg 62%
    10:00 +15°C° 0.1 mm 4 mps 767 mmHg 53%
    11:00 +17°C° 0.1 mm 4 mps 767 mmHg 49%
    12:00 +18°C° 0.1 mm 4 mps 766 mmHg 46%
    13:00 +19°C° 0.1 mm 4 mps 766 mmHg 42%
    14:00 +19°C° 0 mm 4 mps 765 mmHg 43%
    15:00 +18°C° 0 mm 4 mps 765 mmHg 44%
    16:00 +18°C° 0 mm 4 mps 765 mmHg 46%
    17:00 +16°C° 0 mm 3 mps 766 mmHg 54%
    18:00 +13°C° 0 mm 3 mps 766 mmHg 63%
    19:00 +12°C° 0 mm 2 mps 766 mmHg 71%
    20:00 +12°C° 0 mm 2 mps 767 mmHg 75%
    21:00 +10°C° 0 mm 2 mps 767 mmHg 78%
    22:00 +10°C° 0 mm 2 mps 767 mmHg 82%
    23:00 +9°C° 0 mm 2 mps 767 mmHg 84%
    Show more